| time (UTC) | temp F | wind direction | speed MPH | gust MPH | rain 1hr in | rain 24hr in | rain mn in | humidity % | barometer mb |
| 20260510191546 | 77 | 221 | 2.0 | 6.0 | 0.00 | 0.00 | 0.00 | 14 | 1015.5 |
| 20260510190043 | 75 | 63 | 0.0 | 7.0 | 0.00 | 0.00 | 0.00 | 13 | 1015.8 |
| 20260510184542 | 75 | 256 | 0.0 | 6.0 | 0.00 | 0.00 | 0.00 | 12 | 1015.9 |
| 20260510183047 | 74 | 277 | 2.0 | 7.0 | 0.00 | 0.00 | 0.00 | 13 | 1016.1 |
| 20260510181541 | 71 | 147 | 1.0 | 7.0 | 0.00 | 0.00 | 0.00 | 16 | 1016.2 |
| 20260510180010 | 71 | 243 | 2.0 | 6.0 | 0.00 | 0.00 | 0.00 | 17 | 1016.4 |
| 20260510174513 | 71 | 223 | 0.0 | 4.0 | 0.00 | 0.00 | 0.00 | 18 | 1016.4 |
| 20260510173006 | 68 | 233 | 0.0 | 3.0 | 0.00 | 0.00 | 0.00 | 18 | 1016.6 |
| 20260510171507 | 66 | 6 | 0.0 | 2.0 | 0.00 | 0.00 | 0.00 | 19 | 1016.8 |
| 20260510170005 | 65 | 258 | 1.0 | 3.0 | 0.00 | 0.00 | 0.00 | 20 | 1016.9 |
| 20260510164504 | 63 | 148 | 0.0 | 4.0 | 0.00 | 0.00 | 0.00 | 21 | 1017.0 |
| 20260510163002 | 62 | 217 | 1.0 | 4.0 | 0.00 | 0.00 | 0.00 | 21 | 1017.1 |
| 20260510161502 | 60 | 286 | 0.0 | 3.0 | 0.00 | 0.00 | 0.00 | 23 | 1017.0 |
| 20260510160000 | 58 | 239 | 0.0 | 2.0 | 0.00 | 0.00 | 0.00 | 23 | 1017.1 |
| 20260510154501 | 56 | 274 | 0.0 | 3.0 | 0.00 | 0.00 | 0.00 | 26 | 1017.1 |
| 20260510153058 | 55 | 68 | 0.0 | 1.0 | 0.00 | 0.00 | 0.00 | 29 | 1017.1 |
| 20260510151558 | 52 | 44 | 0.0 | 1.0 | 0.00 | 0.00 | 0.00 | 29 | 1017.2 |
| 20260510150055 | 51 | 31 | 0.0 | 1.0 | 0.00 | 0.00 | 0.00 | 29 | 1017.2 |
| 20260510144556 | 51 | 242 | 0.0 | 1.0 | 0.00 | 0.00 | 0.00 | 29 | 1017.1 |
| 20260510143032 | 48 | 229 | 0.0 | 1.0 | 0.00 | 0.00 | 0.00 | 31 | 1016.9 |
| 20260510141523 | 47 | 207 | 0.0 | 0.0 | 0.00 | 0.00 | 0.00 | 33 | 1016.9 |
| 20260510140020 | 44 | 205 | 0.0 | 1.0 | 0.00 | 0.00 | 0.00 | 34 | 1016.8 |
| 20260510134518 | 44 | 134 | 0.0 | 1.0 | 0.00 | 0.00 | 0.00 | 35 | 1016.5 |
| 20260510133017 | 40 | 29 | 0.0 | 0.0 | 0.00 | 0.00 | 0.00 | 43 | 1016.3 |
| 20260510131515 | 37 | 29 | 0.0 | 0.0 | 0.00 | 0.00 | 0.00 | 46 | 1015.9 |
| 20260510130014 | 0 | 0.0 | 0.0 | 0.00 | 0.00 | 0.00 | 1016.0 | ||
| 20260510124508 | 0 | 0.0 | 0.0 | 0.00 | 0.00 | 0.00 | 1016.0 | ||
| 20260510123111 | 0 | 0.0 | 0.0 | 0.00 | 0.00 | 0.00 | 1016.2 | ||
| 20260510121556 | 0 | 0.0 | 0.0 | 0.00 | 0.00 | 0.00 | 1016.4 | ||
| 20260510120051 | 32 | 44 | 0.0 | 1.0 | 0.00 | 0.00 | 0.00 | 51 | 1016.7 |
| 20260510114549 | 33 | 43 | 0.0 | 2.0 | 0.00 | 0.00 | 0.00 | 51 | 1016.6 |
| 20260510113056 | 34 | 23 | 0.0 | 0.0 | 0.00 | 0.00 | 0.00 | 49 | 1016.5 |
| 20260510111602 | 33 | 21 | 0.0 | 1.0 | 0.00 | 0.00 | 0.00 | 51 | 1016.3 |
| 20260510110037 | 35 | 52 | 0.0 | 1.0 | 0.00 | 0.00 | 0.00 | 47 | 1016.0 |
| 20260510104542 | 37 | 52 | 0.0 | 2.0 | 0.00 | 0.00 | 0.00 | 43 | 1015.7 |
| 20260510103037 | 36 | 54 | 1.0 | 1.0 | 0.00 | 0.00 | 0.00 | 45 | 1015.8 |
| 20260510101532 | 38 | 55 | 0.0 | 1.0 | 0.00 | 0.00 | 0.00 | 43 | 1015.5 |
| 20260510100027 | 38 | 55 | 0.0 | 1.0 | 0.00 | 0.00 | 0.00 | 44 | 1015.4 |
| 20260510094527 | 39 | 55 | 0.0 | 2.0 | 0.00 | 0.00 | 0.00 | 41 | 1015.3 |
| 20260510093024 | 40 | 67 | 0.0 | 1.0 | 0.00 | 0.00 | 0.00 | 39 | 1015.2 |
| 20260510091541 | 40 | 65 | 0.0 | 1.0 | 0.00 | 0.00 | 0.00 | 40 | 1015.1 |
| 20260510084556 | 41 | 132 | 0.0 | 1.0 | 0.00 | 0.00 | 0.00 | 38 | 1014.9 |
| 20260510083044 | 43 | 139 | 0.0 | 1.0 | 0.00 | 0.00 | 0.00 | 35 | 1014.9 |
| 20260510081547 | 43 | 201 | 0.0 | 0.0 | 0.00 | 0.00 | 0.00 | 36 | 1014.9 |
| 20260510080043 | 42 | 201 | 0.0 | 0.0 | 0.00 | 0.00 | 0.00 | 36 | 1014.9 |
| 20260510074541 | 42 | 264 | 0.0 | 3.0 | 0.00 | 0.00 | 0.00 | 35 | 1014.9 |
| 20260510073040 | 50 | 303 | 0.0 | 1.0 | 0.00 | 0.00 | 0.00 | 27 | 1014.6 |
| 20260510071540 | 56 | 81 | 0.0 | 3.0 | 0.00 | 0.00 | 0.00 | 22 | 1014.6 |
| 20260510070043 | 56 | 83 | 0.0 | 3.0 | 0.00 | 0.00 | 0.00 | 22 | 1014.6 |
| 20260510064554 | 56 | 87 | 0.0 | 1.0 | 0.00 | 0.00 | 0.00 | 23 | 1014.5 |
| 20260510063039 | 55 | 88 | 0.0 | 5.0 | 0.00 | 0.00 | 0.00 | 23 | 1014.4 |
| 20260510061542 | 55 | 79 | 0.0 | 3.0 | 0.00 | 0.00 | 0.00 | 22 | 1014.4 |
| 20260510060036 | 55 | 77 | 0.0 | 2.0 | 0.00 | 0.00 | 0.00 | 22 | 1014.4 |
| 20260510054529 | 56 | 77 | 1.0 | 3.0 | 0.00 | 0.00 | 0.00 | 21 | 1014.5 |
| 20260510053025 | 56 | 82 | 1.0 | 3.0 | 0.00 | 0.00 | 0.00 | 21 | 1014.5 |
| 20260510051525 | 54 | 75 | 0.0 | 3.0 | 0.00 | 0.00 | 0.00 | 23 | 1014.4 |
| 20260510050022 | 54 | 55 | 0.0 | 3.0 | 0.00 | 0.00 | 0.00 | 23 | 1014.3 |
| 20260510044523 | 54 | 74 | 0.0 | 2.0 | 0.00 | 0.00 | 0.00 | 22 | 1014.1 |
| 20260510043020 | 53 | 68 | 0.0 | 3.0 | 0.00 | 0.00 | 0.00 | 23 | 1014.0 |
| 20260510041515 | 54 | 73 | 0.0 | 2.0 | 0.00 | 0.00 | 0.00 | 22 | 1013.7 |
| 20260510040015 | 52 | 63 | 1.0 | 4.0 | 0.00 | 0.00 | 0.00 | 26 | 1013.5 |
| 20260510034509 | 55 | 66 | 0.0 | 2.0 | 0.00 | 0.00 | 0.00 | 21 | 1013.1 |
| 20260510033005 | 58 | 7 | 0.0 | 0.0 | 0.00 | 0.00 | 0.00 | 18 | 1012.8 |
| 20260510031536 | 59 | 7 | 0.0 | 0.0 | 0.00 | 0.00 | 0.00 | 16 | 1012.5 |
| 20260510030029 | 62 | 7 | 0.0 | 1.0 | 0.00 | 0.00 | 0.00 | 15 | 1012.2 |
| 20260510024525 | 64 | 335 | 0.0 | 2.0 | 0.00 | 0.00 | 0.00 | 14 | 1012.1 |
| 20260510023018 | 67 | 2 | 1.0 | 5.0 | 0.00 | 0.00 | 0.00 | 13 | 1011.8 |
| 20260510021514 | 69 | 25 | 3.0 | 9.0 | 0.00 | 0.00 | 0.00 | 13 | 1011.7 |
| 20260510020013 | 70 | 343 | 2.0 | 9.0 | 0.00 | 0.00 | 0.00 | 13 | 1011.6 |
| 20260510014515 | 71 | 334 | 6.0 | 10.0 | 0.00 | 0.00 | 0.00 | 13 | 1011.5 |
| 20260510013012 | 72 | 331 | 7.0 | 13.0 | 0.00 | 0.00 | 0.00 | 13 | 1011.3 |
| 20260510011507 | 73 | 349 | 4.0 | 12.0 | 0.00 | 0.00 | 0.00 | 12 | 1011.3 |
| 20260510010006 | 74 | 331 | 6.0 | 10.0 | 0.00 | 0.00 | 0.00 | 13 | 1011.2 |
| 20260510004535 | 74 | 300 | 5.0 | 9.0 | 0.00 | 0.00 | 0.00 | 13 | 1011.1 |
| 20260510003045 | 74 | 308 | 0.0 | 6.0 | 0.00 | 0.00 | 0.00 | 14 | 1011.1 |
| 20260510001531 | 75 | 75 | 0.0 | 7.0 | 0.00 | 0.00 | 0.00 | 15 | 1011.2 |
| 20260510000031 | 75 | 274 | 2.0 | 7.0 | 0.00 | 0.00 | 0.00 | 15 | 1011.3 |
| 20260509234539 | 75 | 343 | 2.0 | 9.0 | 0.00 | 0.00 | 0.00 | 15 | 1011.4 |
| 20260509233039 | 74 | 305 | 6.0 | 13.0 | 0.00 | 0.00 | 0.00 | 14 | 1011.5 |
| 20260509231528 | 75 | 57 | 6.0 | 11.0 | 0.00 | 0.00 | 0.00 | 14 | 1011.5 |
| 20260509230022 | 74 | 290 | 5.0 | 11.0 | 0.00 | 0.00 | 0.00 | 14 | 1011.6 |
| 20260509224519 | 74 | 53 | 3.0 | 8.0 | 0.00 | 0.00 | 0.00 | 14 | 1011.8 |
| 20260509223018 | 74 | 277 | 6.0 | 12.0 | 0.00 | 0.00 | 0.00 | 13 | 1011.9 |
| 20260509221546 | 74 | 324 | 4.0 | 11.0 | 0.00 | 0.00 | 0.00 | 12 | 1012.1 |
| 20260509220143 | 73 | 315 | 2.0 | 8.0 | 0.00 | 0.00 | 0.00 | 13 | 1012.4 |
| 20260509214538 | 74 | 6 | 3.0 | 12.0 | 0.00 | 0.00 | 0.00 | 14 | 1012.6 |
| 20260509213035 | 73 | 333 | 3.0 | 11.0 | 0.00 | 0.00 | 0.00 | 13 | 1012.7 |
| 20260509211533 | 73 | 58 | 0.0 | 8.0 | 0.00 | 0.00 | 0.00 | 14 | 1012.8 |
| 20260509210030 | 73 | 190 | 2.0 | 10.0 | 0.00 | 0.00 | 0.00 | 15 | 1012.9 |
| 20260509204529 | 71 | 148 | 4.0 | 9.0 | 0.00 | 0.00 | 0.00 | 16 | 1013.2 |
| 20260509203033 | 71 | 347 | 3.0 | 9.0 | 0.00 | 0.00 | 0.00 | 18 | 1013.2 |
| 20260509201521 | 70 | 84 | 3.0 | 9.0 | 0.00 | 0.00 | 0.00 | 19 | 1013.4 |
| 20260509200017 | 70 | 314 | 2.0 | 7.0 | 0.00 | 0.00 | 0.00 | 16 | 1013.6 |
| 20260509194510 | 68 | 96 | 0.0 | 9.0 | 0.00 | 0.00 | 0.00 | 18 | 1013.7 |
| 20260509193006 | 68 | 322 | 0.0 | 10.0 | 0.00 | 0.00 | 0.00 | 18 | 1013.9 |